User: anonymous
Location: Unspecified
(0.0000°N, 0.0000°E)
Time: 01:49:12
(UTC+00:00)
Language:

N. Korean satellite - Orbit

View from above orbital plane
View from above orbital plane
View from above satellite
View from above satellite

Ground track
Ground track

The orbit data is extracted from the following two-line orbital elements,

1 39026U 12072A   14108.16799148  .00005315  00000-0  29047-3 0   294
2 39026 097.3335 150.0156 0051817 276.4732 083.0602 15.13555109 74299
Epoch (UTC): 18 April 2014 04:01:54
Eccentricity: 0.0051817
inclination: 97.3335°
perigee height: 489 km
apogee height: 561 km
right ascension of ascending node: 150.0156°
argument of perigee: 276.4732°
revolutions per day: 15.13555109
mean anomaly at epoch: 83.0602°
orbit number at epoch: 7429

The dashed part of the orbit path shows where the satellite is in the earth's shadow,  

DLR